Flag for U.S.A. Weather past 2 weeks in Glendale, California, U.S.A.

Now
88 °F

Sunny.


Feels Like: 85 °F
Forecast: 66 / 93 °F
Wind: 12 mph from Southeast

Location: Burbank-Glendale-Pasadena Airport

Current Time: Aug 29, 2014 at 1:36:44 PM

Latest Report: Aug 29, 2014 at 11:53 AM


Visibility: 10 mi

Pressure: 29.83 "Hg

Humidity: 26%

Dew point: 49 °F

Location of GlendaleLocation

Historic Weather in Glendale — Graph

°F

Glendale temperature yesterday

Maximum temperature yesterday: 99 °F (at 3:53 PM)
Minimum temperature yesterday: 69 °F (at 6:53 AM)
Average temperature yesterday: 83 °F

Past Weeks' High & Low Weather Summary

 TemperatureHumidityPressure
High99 °F (Aug 28, 3:53 PM)87% (Aug 23, 1:53 AM)30.01 "Hg (Aug 23, 1:53 AM)
Low62 °F (Aug 24, 6:53 AM)9% (Aug 28, 7:53 PM)29.74 "Hg (Aug 18, 3:53 PM)
Average76 °F51%29.89 "Hg
* Reported Aug 14 11:53 AM — Aug 29 11:53 AM, Glendale, Weather by CustomWeather, © 2014

Note: Actual official high and low records may vary slightly from our data, if they occured in-between our weather recording intervals... More about our weather records

Advertising

Glendale weather history for previous 24 hours

 ConditionsComfort  
Time TempWeatherWind HumidityBarometerVisibility
11:53 AM
Aug 29
88 °FSunny.12 mph26%29.83 "Hg10 mi
10:53 AM84 °FSunny.8 mph29%29.84 "Hg10 mi
9:53 AM80 °FSunny.No wind31%29.85 "Hg10 mi
8:53 AM75 °FSunny.No wind37%29.85 "Hg10 mi
7:53 AM71 °FSunny.No wind41%29.85 "Hg10 mi
6:53 AM67 °FClear.No wind44%29.85 "Hg10 mi
5:53 AM68 °FClear.No wind44%29.84 "Hg10 mi
4:53 AM69 °FClear.No wind47%29.83 "Hg10 mi
3:53 AM71 °FClear.3 mph45%29.83 "Hg10 mi
2:53 AM72 °FClear.3 mph43%29.83 "Hg10 mi
1:53 AM73 °FClear.No wind36%29.84 "Hg10 mi
12:53 AM75 °FClear.3 mph31%29.85 "Hg10 mi
11:53 PM
Aug 28
77 °FClear.6 mph26%29.86 "Hg10 mi
10:53 PM80 °FClear.5 mph24%29.86 "Hg10 mi
9:53 PM83 °FClear.3 mph17%29.86 "Hg10 mi
8:53 PM85 °FClear.3 mph12%29.86 "Hg10 mi
7:53 PM88 °FSunny.7 mph9%29.85 "Hg10 mi
6:53 PM92 °FSunny.7 mph10%29.83 "Hg10 mi
5:53 PM95 °FSunny.15 mph13%29.84 "Hg10 mi
4:53 PM97 °FSunny.16 mph14%29.84 "Hg10 mi
3:53 PM99 °FSunny.12 mph13%29.85 "Hg10 mi
2:53 PM95 °FSunny.8 mph22%29.86 "Hg10 mi
1:53 PM95 °FSunny.9 mph21%29.88 "Hg10 mi
Weather by CustomWeather, © 2014

See weather overviewHow to use our weather pages